#timestamp,LO_Frequency,Hit,StdDev 
1518267615.1,286047000.9,Y
1518267635.9,286047000.7,P
1518267655.7,286047000.0,N
1518267675.5,286047000.8,N
1518267695.4,286047000.7,N
1518267715.2,286047000.7,N
1518267735.0,286047001.0,Y
1518267735.9,286047001.0,P
1518267755.8,286047000.5,N
1518267775.6,286047000.4,N
1518267795.4,286047001.0,Y
1518267815.3,286046998.2,P
1518267835.1,286046998.2,N
1518267855.8,286046998.8,N
1518267875.7,286046998.5,N
1518267895.5,286046998.8,N
1518267915.3,286047000.6,N
1518267935.2,286047001.2,N
1518267955.9,286047001.1,N
1518267975.7,286047001.1,N
1518267995.6,286047000.8,N
1518268015.4,286047001.0,N
1518268035.2,286047000.6,N
1518268055.0,286047000.3,N
1518268056.0,286047000.3,N
1518268075.8,286047000.0,N
1518268095.6,286047002.7,N
1518268115.4,286046999.9,N
1518268135.3,286047000.0,N
1518268155.1,286046999.9,N
1518268175.8,286046999.9,N
1518268195.7,286047002.7,N
1518268215.5,286047000.1,N
1518268235.3,286046999.7,N
1518268255.2,286047002.8,N
1518268275.9,286047002.1,N
1518268295.7,286047002.3,N
1518268315.6,286047001.6,N
1518268335.4,286047001.5,N
1518268355.2,286047002.6,N
1518268375.0,286047002.5,N
1518268375.9,286047002.5,N
1518268395.8,286047002.5,N
1518268415.6,286047002.8,N
1518268435.4,286047001.5,N
1518268455.3,286047002.1,N
1518268475.1,286047003.8,Y
1518268495.8,286046999.8,P
1518268515.7,286047002.2,N
1518268535.5,286047002.4,N
1518268555.3,286047002.5,N
1518268575.2,286047002.1,N
1518268595.9,286047002.0,N
1518268615.7,286047001.6,N
1518268635.6,286047004.0,Y
1518268655.4,286047000.1,P
1518268675.2,286047000.1,N
1518268695.1,286046999.8,N
1518268696.0,286046999.8,N
1518268715.8,286047002.8,Y
1518268735.6,286046999.9,P
1518268755.5,286046999.9,N
1518268775.3,286047000.2,N
1518268795.1,286047002.4,Y
1518268815.9,286047000.2,P
1518268835.7,286046999.9,N
1518268855.5,286047002.4,P
1518268875.4,286047000.2,N
1518268895.2,286047002.4,N
1518268915.0,286047002.7,N
1518268915.9,286047002.7,N
1518268935.8,286046999.9,N
1518268955.6,286046999.9,N
1518268975.4,286047000.2,N
1518268995.2,286047000.6,N
1518269015.1,286046999.9,N
1518269016.0,286046999.9,N
1518269035.8,286046999.9,N
1518269055.6,286047000.6,N
1518269075.5,286046999.7,N
1518269095.3,286047002.5,N
1518269115.1,286047002.7,N
1518269135.9,286047002.4,N
1518269155.7,286047002.3,N
1518269175.5,286047001.6,N
1518269195.4,286047002.3,N
1518269215.2,286047002.3,N
1518269235.0,286047001.6,N
1518269235.9,286047001.6,N
1518269255.7,286047002.5,N
1518269275.6,286047002.2,N
1518269295.4,286047001.8,N
1518269315.2,286047004.2,Y
1518269335.1,286047002.7,P
1518269336.0,286047002.7,P
1518269355.8,286047002.5,P
1518269375.7,286047002.0,Y
1518269395.5,286047000.0,P
1518269415.3,286047000.2,N
1518269435.1,286047000.1,N
1518269455.9,286046999.8,N
1518269475.7,286047002.7,N
1518269495.5,286047002.6,N
1518269515.4,286047000.0,N
1518269535.2,286047002.4,N
1518269555.0,286047002.8,N
1518269555.9,286047002.8,N
1518269575.8,286047002.6,N
1518269595.9,286047002.1,N
1518269615.7,286047001.6,N
1518269635.5,286047001.8,N
1518269655.4,286047002.0,N
1518269675.2,286047001.6,N
1518269695.0,286047004.4,Y
1518269695.9,286047004.4,P
1518269715.8,286047002.4,N
1518269735.6,286047002.3,N
1518269755.4,286047000.1,N
1518269775.3,286047000.4,N
1518269795.1,286047003.1,N
1518269815.8,286047003.2,N
1518269835.7,286047001.2,N
1518269855.5,286046998.7,N
1518269875.3,286047000.9,N
1518269895.2,286047000.0,N
1518269915.9,286046999.9,N
1518269935.7,286047001.7,N
1518269955.5,286047002.8,N
1518269975.4,286047000.0,N
1518269995.2,286047000.9,N
1518270015.0,286047002.8,N
1518270015.9,286047002.8,N
1518270035.8,286047002.7,N
1518270055.6,286047000.0,N
1518270075.4,286047002.7,N
1518270095.3,286047002.3,N
1518270115.1,286047002.5,N
1518270135.8,286046999.7,N
1518270155.7,286047002.5,N
1518270175.5,286047002.2,N
1518270195.3,286047002.2,N
1518270215.2,286047002.4,N
1518270235.9,286047001.6,N
1518270255.7,286047112.3,Y
1518270275.6,286047111.2,P
1518270295.4,286046043.7,P
1518270315.2,286046042.0,N
1518270335.1,286046045.9,N
1518270336.0,286046045.9,N
1518270355.8,286046041.9,N
1518270375.6,286046041.8,N
1518270395.4,286046037.0,N
1518270415.3,286046037.4,N
1518270435.1,286046038.0,N
1518270455.8,286046032.2,N
1518270475.7,286046032.2,N
1518270495.5,286046030.1,N
1518270515.3,286046029.3,N
1518270535.2,286046027.4,N
1518270555.9,286046027.6,N
1518270575.7,286046026.3,N
1518270595.6,286046025.6,Y
1518270615.4,286046874.1,P
1518270635.2,286046876.3,N
1518270655.1,286046871.4,N
1518270656.0,286046871.4,N
1518270675.8,286046871.3,N
1518270695.6,286046871.0,N
1518270715.5,286046865.7,N
1518270735.3,286046866.5,N
1518270755.1,286046858.0,N
1518270775.8,286046865.0,N
1518270795.7,286046864.3,N
1518270815.5,286046864.3,N
1518270835.3,286046864.7,N
1518270855.2,286046864.7,N
1518270875.9,286046864.7,N
1518270895.7,286046864.7,N
1518270915.6,286046859.0,N
1518270935.4,286046859.6,N
1518270955.2,286046857.5,N
1518270975.0,286046855.8,N
1518270976.0,286046855.8,N
1518270995.8,286046856.5,N
1518271015.6,286046856.6,N
1518271035.4,286046857.2,N
1518271055.3,286046851.4,N
1518271075.1,286046852.6,N
1518271095.8,286046851.4,N
1518271115.7,286046851.0,N
1518271135.5,286046851.8,N
1518271155.3,286046847.6,N
1518271175.2,286047853.6,Y
1518271195.9,286047990.8,P
